Time,TemperatureF,DewpointF,PressureIn,WindDirection,WindDirectionDegrees,WindSpeedMPH,WindSpeedGustMPH,Humidity,HourlyPrecipIn,Conditions,Clouds,dailyrainin,SoftwareType,DateUTC
2013-09-24 00:00:00,43.1,36.1,30.15,NW,315,0.0,0.0,76,0.00,,---,0.00,VWS V14.01,2013-09-24 04:00:00,
2013-09-24 00:01:00,43.1,36.1,30.15,NW,315,0.0,0.0,76,0.00,,---,0.00,VWS V14.01,2013-09-24 04:01:00,
2013-09-24 00:06:00,43.1,36.1,30.15,NW,315,0.0,0.0,76,0.00,,---,0.00,VWS V14.01,2013-09-24 04:06:00,
2013-09-24 00:11:00,42.9,35.9,30.15,NW,315,0.0,0.0,76,0.00,,---,0.00,VWS V14.01,2013-09-24 04:11:00,
2013-09-24 00:16:00,42.9,35.9,30.15,NW,315,0.0,0.0,76,0.00,,---,0.00,VWS V14.01,2013-09-24 04:16:00,
2013-09-24 00:21:00,43.1,36.1,30.15,NNW,338,0.0,0.0,76,0.00,,---,0.00,VWS V14.01,2013-09-24 04:21:00,
2013-09-24 00:26:00,43.1,36.1,30.15,NNW,338,0.0,0.0,76,0.00,,---,0.00,VWS V14.01,2013-09-24 04:26:00,
2013-09-24 00:31:00,43.1,36.1,30.15,NNW,338,0.0,0.0,76,0.00,,---,0.00,VWS V14.01,2013-09-24 04:31:00,
2013-09-24 00:36:00,43.1,36.1,30.15,NNW,338,0.0,0.0,76,0.00,,---,0.00,VWS V14.01,2013-09-24 04:36:00,
2013-09-24 00:41:00,43.1,36.1,30.15,NNW,338,0.0,0.0,76,0.00,,---,0.00,VWS V14.01,2013-09-24 04:41:00,
2013-09-24 00:46:00,43.1,36.1,30.15,NW,315,0.0,0.0,76,0.00,,---,0.00,VWS V14.01,2013-09-24 04:46:00,
2013-09-24 00:51:00,43.1,36.1,30.15,NNW,338,0.0,0.0,76,0.00,,---,0.00,VWS V14.01,2013-09-24 04:51:00,
2013-09-24 00:56:00,43.1,36.1,30.15,SSW,202,0.0,0.0,76,0.00,,---,0.00,VWS V14.01,2013-09-24 04:56:00,
2013-09-24 01:01:00,43.1,36.1,30.15,SSW,202,0.0,0.0,76,0.00,,---,0.00,VWS V14.01,2013-09-24 05:01:00,
2013-09-24 01:06:00,43.1,36.1,30.15,NW,315,0.0,0.0,76,0.00,,---,0.00,VWS V14.01,2013-09-24 05:06:00,
2013-09-24 01:11:00,43.1,36.1,30.14,NW,315,0.0,0.0,76,0.00,,---,0.00,VWS V14.01,2013-09-24 05:11:00,
2013-09-24 01:16:00,43.1,36.1,30.14,NW,315,0.0,0.0,76,0.00,,---,0.00,VWS V14.01,2013-09-24 05:16:00,
2013-09-24 01:21:00,43.1,36.1,30.14,NW,315,0.0,0.0,76,0.00,,---,0.00,VWS V14.01,2013-09-24 05:21:00,
2013-09-24 01:26:00,43.1,36.1,30.14,NW,315,0.0,0.0,76,0.00,,---,0.00,VWS V14.01,2013-09-24 05:26:00,
2013-09-24 01:31:00,43.1,36.1,30.14,NW,315,0.0,0.0,76,0.00,,---,0.00,VWS V14.01,2013-09-24 05:31:00,
2013-09-24 01:36:00,43.1,36.1,30.14,NW,315,0.0,0.0,76,0.00,,---,0.00,VWS V14.01,2013-09-24 05:36:00,
2013-09-24 01:41:00,43.1,36.1,30.14,NW,315,0.0,0.0,76,0.00,,---,0.00,VWS V14.01,2013-09-24 05:41:00,
2013-09-24 01:46:00,43.1,36.1,30.14,NW,315,0.0,0.0,76,0.00,,---,0.00,VWS V14.01,2013-09-24 05:46:00,
2013-09-24 01:51:00,43.1,36.1,30.14,NW,315,0.0,0.0,76,0.00,,---,0.00,VWS V14.01,2013-09-24 05:51:00,
2013-09-24 01:56:00,43.1,36.1,30.14,NW,315,0.0,0.0,76,0.00,,---,0.00,VWS V14.01,2013-09-24 05:56:00,
2013-09-24 02:01:00,43.1,36.1,30.13,NW,315,0.0,0.0,76,0.00,,---,0.00,VWS V14.01,2013-09-24 06:01:00,
2013-09-24 02:06:00,43.1,36.1,30.14,NW,315,0.0,0.0,76,0.00,,---,0.00,VWS V14.01,2013-09-24 06:06:00,
2013-09-24 02:11:00,43.1,36.1,30.13,NW,315,0.0,0.0,76,0.00,,---,0.00,VWS V14.01,2013-09-24 06:11:00,
2013-09-24 02:16:00,43.1,36.1,30.13,NW,315,0.0,0.0,76,0.00,,---,0.00,VWS V14.01,2013-09-24 06:16:00,
2013-09-24 02:21:00,43.1,36.1,30.13,NW,315,0.0,0.0,76,0.00,,---,0.00,VWS V14.01,2013-09-24 06:21:00,
2013-09-24 02:26:00,43.1,36.1,30.13,NW,315,0.0,0.0,76,0.00,,---,0.00,VWS V14.01,2013-09-24 06:26:00,
2013-09-24 02:31:00,43.1,36.1,30.13,WNW,292,0.0,0.0,76,0.00,,---,0.00,VWS V14.01,2013-09-24 06:31:00,
2013-09-24 02:36:00,43.1,36.1,30.13,NW,315,0.0,0.0,76,0.00,,---,0.00,VWS V14.01,2013-09-24 06:36:00,
2013-09-24 02:41:00,42.9,35.9,30.13,NW,315,0.0,0.0,76,0.00,,---,0.00,VWS V14.01,2013-09-24 06:41:00,
2013-09-24 02:46:00,43.1,36.1,30.13,NW,315,0.0,0.0,76,0.00,,---,0.00,VWS V14.01,2013-09-24 06:46:00,
2013-09-24 02:51:00,43.1,36.1,30.13,NW,315,0.0,0.0,76,0.00,,---,0.00,VWS V14.01,2013-09-24 06:51:00,
2013-09-24 02:56:00,43.1,36.1,30.13,WNW,292,0.0,0.0,76,0.00,,---,0.00,VWS V14.01,2013-09-24 06:56:00,
2013-09-24 03:01:00,42.9,35.9,30.12,NW,315,0.0,0.0,76,0.00,,---,0.00,VWS V14.01,2013-09-24 07:01:00,
2013-09-24 03:06:00,42.9,35.9,30.12,NW,315,0.0,0.0,76,0.00,,---,0.00,VWS V14.01,2013-09-24 07:06:00,
2013-09-24 03:11:00,42.9,35.9,30.12,NW,315,0.0,0.0,76,0.00,,---,0.00,VWS V14.01,2013-09-24 07:11:00,
2013-09-24 03:16:00,42.9,35.9,30.13,NW,315,0.0,0.0,76,0.00,,---,0.00,VWS V14.01,2013-09-24 07:16:00,
2013-09-24 03:21:00,42.9,36.2,30.13,NW,315,0.0,0.0,77,0.00,,---,0.00,VWS V14.01,2013-09-24 07:21:00,
2013-09-24 03:26:00,42.9,36.2,30.13,NW,315,0.0,0.0,77,0.00,,---,0.00,VWS V14.01,2013-09-24 07:26:00,
2013-09-24 03:31:00,42.9,36.2,30.13,NW,315,0.0,0.0,77,0.00,,---,0.00,VWS V14.01,2013-09-24 07:31:00,
2013-09-24 03:36:00,42.8,36.1,30.13,NW,315,0.0,0.0,77,0.00,,---,0.00,VWS V14.01,2013-09-24 07:36:00,
2013-09-24 03:41:00,42.8,36.1,30.13,NW,315,0.0,0.0,77,0.00,,---,0.00,VWS V14.01,2013-09-24 07:41:00,
2013-09-24 03:46:00,42.6,35.9,30.13,NW,315,0.0,0.0,77,0.00,,---,0.00,VWS V14.01,2013-09-24 07:46:00,
2013-09-24 03:51:00,42.6,35.9,30.13,NW,315,0.0,0.0,77,0.00,,---,0.00,VWS V14.01,2013-09-24 07:51:00,
2013-09-24 03:56:00,42.6,35.9,30.13,NW,315,0.0,0.0,77,0.00,,---,0.00,VWS V14.01,2013-09-24 07:56:00,
2013-09-24 04:01:00,42.4,35.7,30.13,NW,315,0.0,0.0,77,0.00,,---,0.00,VWS V14.01,2013-09-24 08:01:00,
2013-09-24 04:06:00,42.4,35.7,30.13,NW,315,0.0,0.0,77,0.00,,---,0.00,VWS V14.01,2013-09-24 08:06:00,
2013-09-24 04:11:00,42.4,35.7,30.13,NW,315,0.0,0.0,77,0.00,,---,0.00,VWS V14.01,2013-09-24 08:11:00,
2013-09-24 04:16:00,42.0,35.3,30.13,NW,315,0.0,0.0,77,0.00,,---,0.00,VWS V14.01,2013-09-24 08:16:00,
2013-09-24 04:21:00,42.0,35.3,30.13,NW,315,0.0,0.0,77,0.00,,---,0.00,VWS V14.01,2013-09-24 08:21:00,
2013-09-24 04:26:00,42.0,35.3,30.13,NW,315,0.0,0.0,77,0.00,,---,0.00,VWS V14.01,2013-09-24 08:26:00,
2013-09-24 04:31:00,41.9,35.5,30.13,NW,315,0.0,0.0,78,0.00,,---,0.00,VWS V14.01,2013-09-24 08:31:00,
2013-09-24 04:36:00,41.7,35.4,30.13,NW,315,0.0,0.0,78,0.00,,---,0.00,VWS V14.01,2013-09-24 08:36:00,
2013-09-24 04:41:00,41.7,35.4,30.13,NW,315,0.0,0.0,78,0.00,,---,0.00,VWS V14.01,2013-09-24 08:41:00,
2013-09-24 04:46:00,41.7,35.4,30.13,NW,315,0.0,0.0,78,0.00,,---,0.00,VWS V14.01,2013-09-24 08:46:00,
2013-09-24 04:51:00,41.7,35.4,30.13,NW,315,0.0,0.0,78,0.00,,---,0.00,VWS V14.01,2013-09-24 08:51:00,
2013-09-24 04:56:00,41.7,35.4,30.12,NNW,338,0.0,0.0,78,0.00,,---,0.00,VWS V14.01,2013-09-24 08:56:00,
2013-09-24 05:01:00,41.5,35.5,30.12,NNW,338,0.0,0.0,79,0.00,,---,0.00,VWS V14.01,2013-09-24 09:01:00,
2013-09-24 05:06:00,41.5,35.5,30.13,NE,45,0.0,0.0,79,0.00,,---,0.00,VWS V14.01,2013-09-24 09:06:00,
2013-09-24 05:11:00,41.5,35.5,30.13,NE,45,0.0,0.0,79,0.00,,---,0.00,VWS V14.01,2013-09-24 09:11:00,
2013-09-24 05:16:00,41.5,35.5,30.13,NE,45,0.0,0.0,79,0.00,,---,0.00,VWS V14.01,2013-09-24 09:16:00,
2013-09-24 05:21:00,41.5,35.5,30.13,NE,45,0.0,0.0,79,0.00,,---,0.00,VWS V14.01,2013-09-24 09:21:00,
2013-09-24 05:25:00,41.5,35.5,30.13,NE,45,0.0,0.0,79,0.00,,---,0.00,VWS V14.01,2013-09-24 09:25:00,
2013-09-24 05:30:00,41.5,35.5,30.13,NE,45,0.0,0.0,79,0.00,,---,0.00,VWS V14.01,2013-09-24 09:30:00,
2013-09-24 05:35:00,41.3,35.3,30.13,NE,45,0.0,0.0,79,0.00,,---,0.00,VWS V14.01,2013-09-24 09:35:00,
2013-09-24 05:40:00,41.3,35.3,30.13,NNE,22,0.0,0.0,79,0.00,,---,0.00,VWS V14.01,2013-09-24 09:40:00,
2013-09-24 05:45:00,41.1,35.1,30.13,NNE,22,0.0,0.0,79,0.00,,---,0.00,VWS V14.01,2013-09-24 09:45:00,
2013-09-24 05:50:00,41.1,35.1,30.13,NNE,22,0.0,0.0,79,0.00,,---,0.00,VWS V14.01,2013-09-24 09:50:00,
2013-09-24 05:55:00,41.1,35.1,30.13,NNE,22,0.0,0.0,79,0.00,,---,0.00,VWS V14.01,2013-09-24 09:55:00,
2013-09-24 06:00:00,41.1,35.1,30.13,NNW,338,0.0,0.0,79,0.00,,---,0.00,VWS V14.01,2013-09-24 10:00:00,
2013-09-24 06:05:00,41.0,35.3,30.13,NNE,22,0.0,0.0,80,0.00,,---,0.00,VWS V14.01,2013-09-24 10:05:00,
2013-09-24 06:10:00,41.0,35.3,30.13,NNE,22,0.0,0.0,80,0.00,,---,0.00,VWS V14.01,2013-09-24 10:10:00,
2013-09-24 06:15:00,40.8,35.1,30.13,NNE,22,0.0,0.0,80,0.00,,---,0.00,VWS V14.01,2013-09-24 10:15:00,
2013-09-24 06:20:00,40.8,35.1,30.13,NNE,22,0.0,0.0,80,0.00,,---,0.00,VWS V14.01,2013-09-24 10:20:00,
2013-09-24 06:25:00,40.8,35.1,30.13,NNE,22,0.0,0.0,80,0.00,,---,0.00,VWS V14.01,2013-09-24 10:25:00,
2013-09-24 06:30:00,40.8,35.1,30.13,NNE,22,0.0,0.0,80,0.00,,---,0.00,VWS V14.01,2013-09-24 10:30:00,
2013-09-24 06:35:00,40.6,34.9,30.13,NNE,22,0.0,0.0,80,0.00,,---,0.00,VWS V14.01,2013-09-24 10:35:00,
2013-09-24 06:40:00,40.6,34.9,30.13,NW,315,0.0,0.0,80,0.00,,---,0.00,VWS V14.01,2013-09-24 10:40:00,
2013-09-24 06:45:00,40.4,34.7,30.13,NW,315,0.0,0.0,80,0.00,,---,0.00,VWS V14.01,2013-09-24 10:45:00,
2013-09-24 06:50:00,40.4,34.7,30.13,NW,315,0.0,0.0,80,0.00,,---,0.00,VWS V14.01,2013-09-24 10:50:00,
2013-09-24 06:55:00,40.2,34.5,30.13,NW,315,0.0,0.0,80,0.00,,---,0.00,VWS V14.01,2013-09-24 10:55:00,
2013-09-24 07:00:00,40.2,34.5,30.14,WNW,292,0.0,0.0,80,0.00,,---,0.00,VWS V14.01,2013-09-24 11:00:00,
2013-09-24 07:05:00,40.2,34.5,30.14,NNW,338,0.0,0.0,80,0.00,,---,0.00,VWS V14.01,2013-09-24 11:05:00,
2013-09-24 07:10:00,40.2,34.5,30.14,SW,225,0.0,0.0,80,0.00,,---,0.00,VWS V14.01,2013-09-24 11:10:00,
2013-09-24 07:15:00,40.2,34.5,30.14,SW,225,0.0,0.0,80,0.00,,---,0.00,VWS V14.01,2013-09-24 11:15:00,
2013-09-24 07:20:00,40.1,34.4,30.14,SW,225,0.0,0.0,80,0.00,,---,0.00,VWS V14.01,2013-09-24 11:20:00,
2013-09-24 07:25:00,40.1,34.4,30.14,SW,225,0.0,0.0,80,0.00,,---,0.00,VWS V14.01,2013-09-24 11:25:00,
2013-09-24 07:30:00,40.1,34.8,30.14,SW,225,0.0,0.0,81,0.00,,---,0.00,VWS V14.01,2013-09-24 11:30:00,
2013-09-24 07:35:00,40.1,34.8,30.14,SW,225,0.0,0.0,81,0.00,,---,0.00,VWS V14.01,2013-09-24 11:35:00,
2013-09-24 07:40:00,40.1,34.8,30.14,SW,225,0.0,0.0,81,0.00,,---,0.00,VWS V14.01,2013-09-24 11:40:00,
2013-09-24 07:45:00,40.1,34.8,30.14,SW,225,0.0,0.0,81,0.00,,---,0.00,VWS V14.01,2013-09-24 11:45:00,
2013-09-24 07:50:00,40.2,34.8,30.13,SW,225,0.0,0.0,81,0.00,,---,0.00,VWS V14.01,2013-09-24 11:50:00,
2013-09-24 07:55:00,40.2,34.8,30.13,SW,225,0.0,0.0,81,0.00,,---,0.00,VWS V14.01,2013-09-24 11:55:00,
2013-09-24 08:01:00,40.2,34.8,30.14,SW,225,0.0,0.0,81,0.00,,---,0.00,VWS V14.01,2013-09-24 12:01:00,
2013-09-24 08:05:00,40.1,34.8,30.14,SW,225,0.0,0.0,81,0.00,,---,0.00,VWS V14.01,2013-09-24 12:05:00,
2013-09-24 08:10:00,40.1,34.8,30.14,NW,315,0.0,0.0,81,0.00,,---,0.00,VWS V14.01,2013-09-24 12:10:00,
2013-09-24 08:16:00,40.1,34.8,30.14,NW,315,0.0,0.0,81,0.00,,---,0.00,VWS V14.01,2013-09-24 12:16:00,
2013-09-24 08:21:00,40.1,34.8,30.14,WNW,292,0.0,0.0,81,0.00,,---,0.00,VWS V14.01,2013-09-24 12:21:00,
2013-09-24 08:26:00,39.9,34.5,30.14,NW,315,0.0,0.0,81,0.00,,---,0.00,VWS V14.01,2013-09-24 12:26:00,
2013-09-24 08:31:00,39.9,34.5,30.14,NW,315,0.0,0.0,81,0.00,,---,0.00,VWS V14.01,2013-09-24 12:31:00,
2013-09-24 08:36:00,39.9,34.5,30.14,NW,315,0.0,0.0,81,0.00,,---,0.00,VWS V14.01,2013-09-24 12:36:00,
2013-09-24 08:41:00,39.9,34.5,30.13,NW,315,0.0,0.0,81,0.00,,---,0.00,VWS V14.01,2013-09-24 12:41:00,
2013-09-24 08:46:00,39.9,34.5,30.13,WNW,292,0.0,0.0,81,0.00,,---,0.00,VWS V14.01,2013-09-24 12:46:00,
2013-09-24 08:51:00,39.9,34.5,30.13,NW,315,0.0,0.0,81,0.00,,---,0.00,VWS V14.01,2013-09-24 12:51:00,
2013-09-24 08:56:00,39.9,34.5,30.13,SSW,202,0.0,0.0,81,0.00,,---,0.00,VWS V14.01,2013-09-24 12:56:00,
2013-09-24 09:01:00,39.9,34.5,30.13,SW,225,0.0,0.0,81,0.00,,---,0.00,VWS V14.01,2013-09-24 13:01:00,
2013-09-24 09:06:00,39.9,34.5,30.13,SE,135,0.0,0.0,81,0.00,,---,0.00,VWS V14.01,2013-09-24 13:06:00,
2013-09-24 09:11:00,39.9,34.5,30.13,NW,315,0.0,0.0,81,0.00,,---,0.00,VWS V14.01,2013-09-24 13:11:00,
2013-09-24 09:16:00,39.9,34.5,30.13,NW,315,0.0,0.0,81,0.00,,---,0.00,VWS V14.01,2013-09-24 13:16:00,
2013-09-24 09:21:00,39.9,34.5,30.13,WNW,292,0.0,0.0,81,0.00,,---,0.00,VWS V14.01,2013-09-24 13:21:00,
2013-09-24 09:26:00,39.9,34.5,30.12,East,90,0.0,0.0,81,0.00,,---,0.00,VWS V14.01,2013-09-24 13:26:00,
2013-09-24 09:31:00,40.1,34.8,30.12,North,0,0.0,0.0,81,0.00,,---,0.00,VWS V14.01,2013-09-24 13:31:00,
2013-09-24 09:36:00,40.1,34.8,30.12,NW,315,0.0,0.0,81,0.00,,---,0.00,VWS V14.01,2013-09-24 13:36:00,
2013-09-24 09:41:00,40.1,34.8,30.12,NNW,338,0.0,0.0,81,0.00,,---,0.00,VWS V14.01,2013-09-24 13:41:00,
2013-09-24 09:46:00,40.1,34.8,30.13,NNW,338,0.0,0.0,81,0.00,,---,0.00,VWS V14.01,2013-09-24 13:46:00,
2013-09-24 09:51:00,40.2,34.8,30.12,NE,45,0.0,0.0,81,0.00,,---,0.00,VWS V14.01,2013-09-24 13:51:00,
2013-09-24 09:56:00,40.4,35.0,30.13,WNW,292,0.0,0.0,81,0.00,,---,0.00,VWS V14.01,2013-09-24 13:56:00,
2013-09-24 10:01:00,40.6,35.2,30.13,NW,315,0.0,0.0,81,0.00,,---,0.00,VWS V14.01,2013-09-24 14:01:00,
2013-09-24 10:06:00,40.8,35.4,30.13,NW,315,0.0,0.0,81,0.00,,---,0.00,VWS V14.01,2013-09-24 14:06:00,
2013-09-24 10:11:00,40.8,35.4,30.12,NW,315,2.6,2.6,81,0.00,,---,0.00,VWS V14.01,2013-09-24 14:11:00,
2013-09-24 10:16:00,41.0,35.6,30.12,WNW,292,0.0,0.0,81,0.00,,---,0.00,VWS V14.01,2013-09-24 14:16:00,
2013-09-24 10:21:00,41.1,35.7,30.12,WNW,292,0.0,0.0,81,0.00,,---,0.00,VWS V14.01,2013-09-24 14:21:00,
2013-09-24 10:26:00,41.3,35.9,30.12,WNW,292,0.0,0.0,81,0.00,,---,0.00,VWS V14.01,2013-09-24 14:26:00,
2013-09-24 10:31:00,41.5,35.8,30.12,NNW,338,0.0,0.0,80,0.00,,---,0.00,VWS V14.01,2013-09-24 14:31:00,
2013-09-24 10:36:00,41.5,36.1,30.12,NW,315,0.0,0.0,81,0.00,,---,0.00,VWS V14.01,2013-09-24 14:36:00,
2013-09-24 10:40:00,42.0,36.6,30.11,ENE,68,0.0,0.0,81,0.00,,---,0.00,VWS V14.01,2013-09-24 14:40:00,
2013-09-24 10:45:00,42.2,36.5,30.12,WNW,292,0.0,0.0,80,0.00,,---,0.00,VWS V14.01,2013-09-24 14:45:00,
2013-09-24 10:50:00,42.4,36.7,30.12,NNE,22,0.0,0.0,80,0.00,,---,0.00,VWS V14.01,2013-09-24 14:50:00,
2013-09-24 10:55:00,42.6,36.9,30.12,North,0,0.0,0.0,80,0.00,,---,0.00,VWS V14.01,2013-09-24 14:55:00,
2013-09-24 11:00:00,43.3,37.6,30.12,NW,315,0.0,0.0,80,0.00,,---,0.00,VWS V14.01,2013-09-24 15:00:00,
2013-09-24 11:05:00,43.5,37.8,30.11,West,270,0.0,0.0,80,0.00,,---,0.00,VWS V14.01,2013-09-24 15:05:00,
2013-09-24 11:10:00,44.0,37.9,30.11,NNW,338,0.0,0.0,79,0.00,,---,0.00,VWS V14.01,2013-09-24 15:10:00,
2013-09-24 11:15:00,44.6,38.5,30.11,NNW,338,0.0,0.0,79,0.00,,---,0.00,VWS V14.01,2013-09-24 15:15:00,
2013-09-24 11:20:00,45.1,39.0,30.12,North,0,0.0,0.0,79,0.00,,---,0.00,VWS V14.01,2013-09-24 15:20:00,
2013-09-24 11:25:00,46.0,39.5,30.11,North,0,0.0,0.0,78,0.00,,---,0.00,VWS V14.01,2013-09-24 15:25:00,
2013-09-24 11:30:00,46.5,40.0,30.11,West,270,0.0,0.0,78,0.00,,---,0.00,VWS V14.01,2013-09-24 15:30:00,
2013-09-24 11:35:00,46.9,40.1,30.11,NW,315,0.0,0.0,77,0.00,,---,0.00,VWS V14.01,2013-09-24 15:35:00,
2013-09-24 11:40:00,47.8,40.6,30.11,WNW,292,0.0,0.0,76,0.00,,---,0.00,VWS V14.01,2013-09-24 15:40:00,
2013-09-24 11:45:00,48.2,40.7,30.11,North,0,0.0,0.0,75,0.00,,---,0.00,VWS V14.01,2013-09-24 15:45:00,
2013-09-24 11:50:00,48.7,41.1,30.11,North,0,0.0,0.0,75,0.00,,---,0.00,VWS V14.01,2013-09-24 15:50:00,
2013-09-24 11:55:00,49.8,41.5,30.11,NNW,338,0.0,0.0,73,0.00,,---,0.00,VWS V14.01,2013-09-24 15:55:00,
2013-09-24 12:00:00,50.1,41.4,30.10,NW,315,0.0,0.0,72,0.00,,---,0.00,VWS V14.01,2013-09-24 16:00:00,
2013-09-24 12:05:00,50.7,42.0,30.10,NW,315,0.0,0.0,72,0.00,,---,0.00,VWS V14.01,2013-09-24 16:05:00,
2013-09-24 12:10:00,51.4,42.3,30.10,North,0,0.0,0.0,71,0.00,,---,0.00,VWS V14.01,2013-09-24 16:10:00,
2013-09-24 12:15:00,52.1,42.6,30.10,NNW,338,0.0,0.0,70,0.00,,---,0.00,VWS V14.01,2013-09-24 16:15:00,
2013-09-24 12:20:00,52.5,43.0,30.09,West,270,0.0,0.0,70,0.00,,---,0.00,VWS V14.01,2013-09-24 16:20:00,
2013-09-24 12:25:00,52.8,42.5,30.10,NW,315,0.0,0.0,68,0.00,,---,0.00,VWS V14.01,2013-09-24 16:25:00,
2013-09-24 12:30:00,53.4,43.1,30.09,NW,315,0.0,0.0,68,0.00,,---,0.00,VWS V14.01,2013-09-24 16:30:00,
2013-09-24 12:35:00,53.7,43.0,30.09,NW,315,0.0,0.0,67,0.00,,---,0.00,VWS V14.01,2013-09-24 16:35:00,
2013-09-24 12:40:00,54.3,43.2,30.09,ENE,68,0.0,0.0,66,0.00,,---,0.00,VWS V14.01,2013-09-24 16:40:00,
2013-09-24 12:45:00,54.8,43.7,30.09,NNW,338,0.0,0.0,66,0.00,,---,0.00,VWS V14.01,2013-09-24 16:45:00,
2013-09-24 12:50:00,55.2,43.7,30.08,NNW,338,0.0,0.0,65,0.00,,---,0.00,VWS V14.01,2013-09-24 16:50:00,
2013-09-24 12:55:00,55.5,43.5,30.08,NW,315,2.2,2.2,64,0.00,,---,0.00,VWS V14.01,2013-09-24 16:55:00,
2013-09-24 13:00:00,55.7,43.7,30.08,NW,315,0.0,0.0,64,0.00,,---,0.00,VWS V14.01,2013-09-24 17:00:00,
2013-09-24 13:05:00,55.9,43.5,30.07,WSW,248,0.0,0.0,63,0.00,,---,0.00,VWS V14.01,2013-09-24 17:05:00,
2013-09-24 13:10:00,56.1,43.3,30.07,WSW,248,0.0,0.0,62,0.00,,---,0.00,VWS V14.01,2013-09-24 17:10:00,
2013-09-24 13:15:00,56.1,42.8,30.07,WSW,248,0.0,0.0,61,0.00,,---,0.00,VWS V14.01,2013-09-24 17:15:00,
2013-09-24 13:20:00,56.3,42.6,30.07,WSW,248,2.2,2.2,60,0.00,,---,0.00,VWS V14.01,2013-09-24 17:20:00,
2013-09-24 13:25:00,56.3,42.2,30.07,ENE,68,0.0,0.0,59,0.00,,---,0.00,VWS V14.01,2013-09-24 17:25:00,
2013-09-24 13:30:00,56.3,41.7,30.07,WSW,248,0.0,0.0,58,0.00,,---,0.00,VWS V14.01,2013-09-24 17:30:00,
2013-09-24 13:35:00,56.3,42.2,30.07,WSW,248,0.0,0.0,59,0.00,,---,0.00,VWS V14.01,2013-09-24 17:35:00,
2013-09-24 13:40:00,56.4,42.3,30.07,WSW,248,0.0,0.0,59,0.00,,---,0.00,VWS V14.01,2013-09-24 17:40:00,
2013-09-24 13:45:00,56.4,42.3,30.07,WSW,248,0.0,0.0,59,0.00,,---,0.00,VWS V14.01,2013-09-24 17:45:00,
2013-09-24 13:50:00,56.4,41.8,30.07,WSW,248,0.0,0.0,58,0.00,,---,0.00,VWS V14.01,2013-09-24 17:50:00,
2013-09-24 13:55:00,56.6,41.6,30.06,WSW,248,0.0,0.0,57,0.00,,---,0.00,VWS V14.01,2013-09-24 17:55:00,
2013-09-24 14:00:00,56.8,41.8,30.06,WSW,248,0.0,0.0,57,0.00,,---,0.00,VWS V14.01,2013-09-24 18:00:00,
2013-09-24 14:05:00,56.8,41.8,30.06,WSW,248,0.0,0.0,57,0.00,,---,0.00,VWS V14.01,2013-09-24 18:05:00,
2013-09-24 14:10:00,57.0,41.9,30.05,WSW,248,0.0,0.0,57,0.00,,---,0.00,VWS V14.01,2013-09-24 18:10:00,
2013-09-24 14:15:00,57.0,41.9,30.06,WSW,248,0.0,0.0,57,0.00,,---,0.00,VWS V14.01,2013-09-24 18:15:00,
2013-09-24 14:20:00,57.0,41.9,30.05,WSW,248,2.9,2.9,57,0.00,,---,0.00,VWS V14.01,2013-09-24 18:20:00,
2013-09-24 14:25:00,57.3,42.2,30.05,WSW,248,0.0,0.0,57,0.00,,---,0.00,VWS V14.01,2013-09-24 18:25:00,
2013-09-24 14:30:00,57.3,42.2,30.06,WSW,248,2.9,2.9,57,0.00,,---,0.00,VWS V14.01,2013-09-24 18:30:00,
2013-09-24 14:35:00,57.3,42.2,30.06,WSW,248,0.0,0.0,57,0.00,,---,0.00,VWS V14.01,2013-09-24 18:35:00,
2013-09-24 14:40:00,57.5,41.9,30.05,WSW,248,2.4,2.4,56,0.00,,---,0.00,VWS V14.01,2013-09-24 18:40:00,
2013-09-24 14:45:00,57.7,42.1,30.05,WSW,248,0.0,0.0,56,0.00,,---,0.00,VWS V14.01,2013-09-24 18:45:00,
2013-09-24 14:50:00,58.1,43.0,30.04,WSW,248,0.0,0.0,57,0.00,,---,0.00,VWS V14.01,2013-09-24 18:50:00,
2013-09-24 14:55:00,58.2,42.6,30.05,WSW,248,0.0,0.0,56,0.00,,---,0.00,VWS V14.01,2013-09-24 18:55:00,
2013-09-24 15:00:00,58.6,42.5,30.05,WSW,248,0.0,0.0,55,0.00,,---,0.00,VWS V14.01,2013-09-24 19:00:00,
2013-09-24 15:05:00,58.8,42.7,30.04,WSW,248,0.0,0.0,55,0.00,,---,0.00,VWS V14.01,2013-09-24 19:05:00,
2013-09-24 15:10:00,58.8,42.7,30.04,WSW,248,0.0,0.0,55,0.00,,---,0.00,VWS V14.01,2013-09-24 19:10:00,
2013-09-24 15:15:00,59.3,43.2,30.04,WSW,248,0.0,0.0,55,0.00,,---,0.00,VWS V14.01,2013-09-24 19:15:00,
2013-09-24 15:20:00,59.5,42.9,30.04,WSW,248,0.0,0.0,54,0.00,,---,0.00,VWS V14.01,2013-09-24 19:20:00,
2013-09-24 15:25:00,59.9,43.2,30.05,WSW,248,0.0,0.0,54,0.00,,---,0.00,VWS V14.01,2013-09-24 19:25:00,
2013-09-24 15:30:00,60.0,43.3,30.04,WSW,248,0.0,0.0,54,0.00,,---,0.00,VWS V14.01,2013-09-24 19:30:00,
2013-09-24 15:35:00,60.4,43.7,30.04,WSW,248,0.0,0.0,54,0.00,,---,0.00,VWS V14.01,2013-09-24 19:35:00,
2013-09-24 15:40:00,60.9,44.2,30.04,WSW,248,0.0,0.0,54,0.00,,---,0.00,VWS V14.01,2013-09-24 19:40:00,
2013-09-24 15:45:00,61.3,44.0,30.04,WSW,248,0.0,0.0,53,0.00,,---,0.00,VWS V14.01,2013-09-24 19:45:00,
2013-09-24 15:50:00,61.8,45.0,30.04,WSW,248,0.0,0.0,54,0.00,,---,0.00,VWS V14.01,2013-09-24 19:50:00,
2013-09-24 15:55:00,62.4,44.0,30.04,WSW,248,0.0,0.0,51,0.00,,---,0.00,VWS V14.01,2013-09-24 19:55:00,
2013-09-24 16:00:00,62.4,44.0,30.04,WSW,248,0.0,0.0,51,0.00,,---,0.00,VWS V14.01,2013-09-24 20:00:00,
2013-09-24 16:05:00,62.7,43.8,30.04,WSW,248,0.0,0.0,50,0.00,,---,0.00,VWS V14.01,2013-09-24 20:05:00,
2013-09-24 16:10:00,62.9,44.5,30.04,WSW,248,0.0,0.0,51,0.00,,---,0.00,VWS V14.01,2013-09-24 20:10:00,
2013-09-24 16:15:00,63.1,44.2,30.04,WSW,248,0.0,0.0,50,0.00,,---,0.00,VWS V14.01,2013-09-24 20:15:00,
2013-09-24 16:20:00,63.3,44.4,30.03,WSW,248,0.0,0.0,50,0.00,,---,0.00,VWS V14.01,2013-09-24 20:20:00,
2013-09-24 16:25:00,63.5,44.0,30.03,WSW,248,1.5,1.5,49,0.00,,---,0.00,VWS V14.01,2013-09-24 20:25:00,
2013-09-24 16:30:00,63.5,44.0,30.03,WSW,248,0.0,0.0,49,0.00,,---,0.00,VWS V14.01,2013-09-24 20:30:00,
2013-09-24 16:35:00,63.5,44.0,30.03,WSW,248,0.0,0.0,49,0.00,,---,0.00,VWS V14.01,2013-09-24 20:35:00,
2013-09-24 16:40:00,63.5,44.5,30.03,WSW,248,0.0,0.0,50,0.00,,---,0.00,VWS V14.01,2013-09-24 20:40:00,
2013-09-24 16:45:00,63.3,43.8,30.03,WSW,248,0.0,0.0,49,0.00,,---,0.00,VWS V14.01,2013-09-24 20:45:00,
2013-09-24 16:50:00,63.5,44.5,30.03,WSW,248,0.0,0.0,50,0.00,,---,0.00,VWS V14.01,2013-09-24 20:50:00,
2013-09-24 16:55:00,63.5,44.0,30.03,WSW,248,0.0,0.0,49,0.00,,---,0.00,VWS V14.01,2013-09-24 20:55:00,
2013-09-24 17:00:00,63.3,44.4,30.03,WSW,248,0.0,0.0,50,0.00,,---,0.00,VWS V14.01,2013-09-24 21:00:00,
2013-09-24 17:05:00,63.3,44.4,30.02,WSW,248,0.0,0.0,50,0.00,,---,0.00,VWS V14.01,2013-09-24 21:05:00,
2013-09-24 17:10:00,63.3,44.4,30.02,NW,315,0.0,0.0,50,0.00,,---,0.00,VWS V14.01,2013-09-24 21:10:00,
2013-09-24 17:15:00,63.3,44.9,30.02,NW,315,0.0,0.0,51,0.00,,---,0.00,VWS V14.01,2013-09-24 21:15:00,
2013-09-24 17:20:00,63.3,44.4,30.03,NW,315,0.0,0.0,50,0.00,,---,0.00,VWS V14.01,2013-09-24 21:20:00,
2013-09-24 17:25:00,63.1,44.2,30.03,NW,315,0.0,0.0,50,0.00,,---,0.00,VWS V14.01,2013-09-24 21:25:00,
2013-09-24 17:30:00,63.1,44.2,30.02,NW,315,0.0,0.0,50,0.00,,---,0.00,VWS V14.01,2013-09-24 21:30:00,
2013-09-24 17:35:00,62.9,44.0,30.03,NW,315,0.0,0.0,50,0.00,,---,0.00,VWS V14.01,2013-09-24 21:35:00,
2013-09-24 17:40:00,62.4,43.5,30.03,NW,315,0.0,0.0,50,0.00,,---,0.00,VWS V14.01,2013-09-24 21:40:00,
2013-09-24 17:45:00,62.4,43.5,30.03,NW,315,0.0,0.0,50,0.00,,---,0.00,VWS V14.01,2013-09-24 21:45:00,
2013-09-24 17:50:00,62.2,43.3,30.03,NW,315,0.0,0.0,50,0.00,,---,0.00,VWS V14.01,2013-09-24 21:50:00,
2013-09-24 17:55:00,61.8,43.0,30.03,NW,315,0.0,0.0,50,0.00,,---,0.00,VWS V14.01,2013-09-24 21:55:00,
2013-09-24 18:00:00,61.7,43.4,30.04,NW,315,0.0,0.0,51,0.00,,---,0.00,VWS V14.01,2013-09-24 22:00:00,
2013-09-24 18:05:00,61.5,43.2,30.04,NW,315,0.0,0.0,51,0.00,,---,0.00,VWS V14.01,2013-09-24 22:05:00,
2013-09-24 18:10:00,61.3,43.0,30.04,NW,315,0.0,0.0,51,0.00,,---,0.00,VWS V14.01,2013-09-24 22:10:00,
2013-09-24 18:15:00,61.1,42.8,30.04,NW,315,0.0,0.0,51,0.00,,---,0.00,VWS V14.01,2013-09-24 22:15:00,
2013-09-24 18:20:00,60.8,42.6,30.04,NW,315,0.0,0.0,51,0.00,,---,0.00,VWS V14.01,2013-09-24 22:20:00,
2013-09-24 18:25:00,60.4,42.7,30.04,NW,315,0.0,0.0,52,0.00,,---,0.00,VWS V14.01,2013-09-24 22:25:00,
2013-09-24 18:30:00,60.0,42.3,30.04,NW,315,0.0,0.0,52,0.00,,---,0.00,VWS V14.01,2013-09-24 22:30:00,
2013-09-24 18:35:00,59.7,42.1,30.04,NW,315,0.0,0.0,52,0.00,,---,0.00,VWS V14.01,2013-09-24 22:35:00,
2013-09-24 18:40:00,59.0,41.9,30.04,NW,315,0.0,0.0,53,0.00,,---,0.00,VWS V14.01,2013-09-24 22:40:00,
2013-09-24 18:45:00,58.8,41.7,30.04,NW,315,0.0,0.0,53,0.00,,---,0.00,VWS V14.01,2013-09-24 22:45:00,
2013-09-24 18:50:00,58.2,41.2,30.04,NW,315,0.0,0.0,53,0.00,,---,0.00,VWS V14.01,2013-09-24 22:50:00,
2013-09-24 18:55:00,57.7,41.2,30.05,NW,315,0.0,0.0,54,0.00,,---,0.00,VWS V14.01,2013-09-24 22:55:00,
2013-09-24 19:00:00,57.3,41.3,30.05,NW,315,0.0,0.0,55,0.00,,---,0.00,VWS V14.01,2013-09-24 23:00:00,
2013-09-24 19:05:00,57.0,41.0,30.05,NW,315,0.0,0.0,55,0.00,,---,0.00,VWS V14.01,2013-09-24 23:05:00,
2013-09-24 19:10:00,56.4,40.5,30.05,NW,315,0.0,0.0,55,0.00,,---,0.00,VWS V14.01,2013-09-24 23:10:00,
2013-09-24 19:15:00,56.1,40.6,30.06,NW,315,0.0,0.0,56,0.00,,---,0.00,VWS V14.01,2013-09-24 23:15:00,
2013-09-24 19:20:00,55.9,40.5,30.06,NW,315,0.0,0.0,56,0.00,,---,0.00,VWS V14.01,2013-09-24 23:20:00,
2013-09-24 19:25:00,55.5,40.5,30.06,NW,315,0.0,0.0,57,0.00,,---,0.00,VWS V14.01,2013-09-24 23:25:00,
2013-09-24 19:30:00,55.2,40.2,30.06,NW,315,0.0,0.0,57,0.00,,---,0.00,VWS V14.01,2013-09-24 23:30:00,
2013-09-24 19:35:00,55.0,40.5,30.06,NW,315,0.0,0.0,58,0.00,,---,0.00,VWS V14.01,2013-09-24 23:35:00,
2013-09-24 19:40:00,54.6,40.1,30.06,NW,315,0.0,0.0,58,0.00,,---,0.00,VWS V14.01,2013-09-24 23:40:00,
2013-09-24 19:45:00,54.3,40.3,30.07,NW,315,0.0,0.0,59,0.00,,---,0.00,VWS V14.01,2013-09-24 23:45:00,
2013-09-24 19:50:00,54.1,40.1,30.07,NW,315,0.0,0.0,59,0.00,,---,0.00,VWS V14.01,2013-09-24 23:50:00,
2013-09-24 19:55:00,53.7,39.7,30.07,NW,315,0.0,0.0,59,0.00,,---,0.00,VWS V14.01,2013-09-24 23:55:00,
2013-09-24 20:00:00,53.4,39.9,30.07,NW,315,0.0,0.0,60,0.00,,---,0.00,VWS V14.01,2013-09-25 00:00:00,
2013-09-24 20:05:00,53.2,39.7,30.07,NW,315,0.0,0.0,60,0.00,,---,0.00,VWS V14.01,2013-09-25 00:05:00,
2013-09-24 20:10:00,52.7,39.6,30.08,NW,315,0.0,0.0,61,0.00,,---,0.00,VWS V14.01,2013-09-25 00:10:00,
2013-09-24 20:15:00,52.3,39.3,30.08,NW,315,0.0,0.0,61,0.00,,---,0.00,VWS V14.01,2013-09-25 00:15:00,
2013-09-24 20:20:00,52.1,39.1,30.08,NW,315,0.0,0.0,61,0.00,,---,0.00,VWS V14.01,2013-09-25 00:20:00,
2013-09-24 20:25:00,51.6,39.0,30.08,NW,315,0.0,0.0,62,0.00,,---,0.00,VWS V14.01,2013-09-25 00:25:00,
2013-09-24 20:30:00,51.4,38.8,30.07,NW,315,0.0,0.0,62,0.00,,---,0.00,VWS V14.01,2013-09-25 00:30:00,
2013-09-24 20:35:00,51.0,38.5,30.07,NW,315,0.0,0.0,62,0.00,,---,0.00,VWS V14.01,2013-09-25 00:35:00,
2013-09-24 20:40:00,50.7,38.6,30.07,NW,315,0.0,0.0,63,0.00,,---,0.00,VWS V14.01,2013-09-25 00:40:00,
2013-09-24 20:45:00,50.3,38.2,30.07,NW,315,0.0,0.0,63,0.00,,---,0.00,VWS V14.01,2013-09-25 00:45:00,
2013-09-24 20:50:00,50.1,38.0,30.07,NW,315,0.0,0.0,63,0.00,,---,0.00,VWS V14.01,2013-09-25 00:50:00,
2013-09-24 20:55:00,49.8,38.1,30.07,NW,315,0.0,0.0,64,0.00,,---,0.00,VWS V14.01,2013-09-25 00:55:00,
2013-09-24 21:00:00,49.6,37.9,30.07,NW,315,0.0,0.0,64,0.00,,---,0.00,VWS V14.01,2013-09-25 01:00:00,
2013-09-24 21:05:00,49.2,37.6,30.07,NW,315,0.0,0.0,64,0.00,,---,0.00,VWS V14.01,2013-09-25 01:05:00,
2013-09-24 21:10:00,48.9,37.7,30.07,NW,315,0.0,0.0,65,0.00,,---,0.00,VWS V14.01,2013-09-25 01:10:00,
2013-09-24 21:15:00,48.7,37.5,30.07,NW,315,0.0,0.0,65,0.00,,---,0.00,VWS V14.01,2013-09-25 01:15:00,
2013-09-24 21:20:00,48.5,37.7,30.07,NW,315,0.0,0.0,66,0.00,,---,0.00,VWS V14.01,2013-09-25 01:20:00,
2013-09-24 21:25:00,48.2,37.4,30.07,NW,315,0.0,0.0,66,0.00,,---,0.00,VWS V14.01,2013-09-25 01:25:00,
2013-09-24 21:30:00,48.0,37.2,30.07,NW,315,0.0,0.0,66,0.00,,---,0.00,VWS V14.01,2013-09-25 01:30:00,
2013-09-24 21:35:00,47.8,37.4,30.07,NW,315,0.0,0.0,67,0.00,,---,0.00,VWS V14.01,2013-09-25 01:35:00,
2013-09-24 21:40:00,47.8,37.4,30.07,NW,315,0.0,0.0,67,0.00,,---,0.00,VWS V14.01,2013-09-25 01:40:00,
2013-09-24 21:45:00,47.4,37.0,30.07,NW,315,0.0,0.0,67,0.00,,---,0.00,VWS V14.01,2013-09-25 01:45:00,
2013-09-24 21:50:00,47.4,37.4,30.07,NW,315,0.0,0.0,68,0.00,,---,0.00,VWS V14.01,2013-09-25 01:50:00,
2013-09-24 21:55:00,47.1,37.1,30.08,NW,315,0.0,0.0,68,0.00,,---,0.00,VWS V14.01,2013-09-25 01:55:00,
2013-09-24 22:00:00,47.1,37.1,30.08,NW,315,0.0,0.0,68,0.00,,---,0.00,VWS V14.01,2013-09-25 02:00:00,
2013-09-24 22:05:00,46.9,37.3,30.07,NW,315,0.0,0.0,69,0.00,,---,0.00,VWS V14.01,2013-09-25 02:05:00,
2013-09-24 22:10:00,46.9,37.3,30.08,NW,315,0.0,0.0,69,0.00,,---,0.00,VWS V14.01,2013-09-25 02:10:00,
2013-09-24 22:15:00,46.5,36.9,30.08,NW,315,0.0,0.0,69,0.00,,---,0.00,VWS V14.01,2013-09-25 02:15:00,
2013-09-24 22:20:00,46.5,37.3,30.07,NW,315,0.0,0.0,70,0.00,,---,0.00,VWS V14.01,2013-09-25 02:20:00,
2013-09-24 22:25:00,46.4,37.2,30.08,NW,315,0.0,0.0,70,0.00,,---,0.00,VWS V14.01,2013-09-25 02:25:00,
2013-09-24 22:30:00,46.2,37.3,30.08,NW,315,0.0,0.0,71,0.00,,---,0.00,VWS V14.01,2013-09-25 02:30:00,
2013-09-24 22:35:00,46.2,37.3,30.08,WNW,292,0.0,0.0,71,0.00,,---,0.00,VWS V14.01,2013-09-25 02:35:00,
2013-09-24 22:40:00,46.0,37.5,30.08,NW,315,0.0,0.0,72,0.00,,---,0.00,VWS V14.01,2013-09-25 02:40:00,
2013-09-24 22:45:00,45.8,37.7,30.08,NW,315,0.0,0.0,73,0.00,,---,0.00,VWS V14.01,2013-09-25 02:45:00,
2013-09-24 22:50:00,45.6,37.5,30.08,NW,315,0.0,0.0,73,0.00,,---,0.00,VWS V14.01,2013-09-25 02:50:00,
2013-09-24 22:55:00,45.5,37.4,30.08,NW,315,0.0,0.0,73,0.00,,---,0.00,VWS V14.01,2013-09-25 02:55:00,
2013-09-24 23:00:00,45.5,37.7,30.07,NW,315,0.0,0.0,74,0.00,,---,0.00,VWS V14.01,2013-09-25 03:00:00,
2013-09-24 23:05:00,45.3,37.5,30.08,NW,315,0.0,0.0,74,0.00,,---,0.00,VWS V14.01,2013-09-25 03:05:00,
2013-09-24 23:10:00,45.3,37.9,30.08,NW,315,0.0,0.0,75,0.00,,---,0.00,VWS V14.01,2013-09-25 03:10:00,
2013-09-24 23:15:00,45.3,37.9,30.07,NW,315,0.0,0.0,75,0.00,,---,0.00,VWS V14.01,2013-09-25 03:15:00,
2013-09-24 23:20:00,45.1,37.7,30.07,NW,315,0.0,0.0,75,0.00,,---,0.00,VWS V14.01,2013-09-25 03:20:00,
2013-09-24 23:25:00,45.1,37.7,30.07,NW,315,0.0,0.0,75,0.00,,---,0.00,VWS V14.01,2013-09-25 03:25:00,
2013-09-24 23:30:00,45.1,38.0,30.07,WNW,292,0.0,0.0,76,0.00,,---,0.00,VWS V14.01,2013-09-25 03:30:00,
2013-09-24 23:35:00,45.1,38.0,30.07,WNW,292,0.0,0.0,76,0.00,,---,0.00,VWS V14.01,2013-09-25 03:35:00,
2013-09-24 23:40:00,45.1,38.0,30.07,NW,315,0.0,0.0,76,0.00,,---,0.00,VWS V14.01,2013-09-25 03:40:00,
2013-09-24 23:45:00,44.9,37.8,30.07,NW,315,0.0,0.0,76,0.00,,---,0.00,VWS V14.01,2013-09-25 03:45:00,
2013-09-24 23:50:00,44.9,37.8,30.07,NW,315,0.0,0.0,76,0.00,,---,0.00,VWS V14.01,2013-09-25 03:50:00,
2013-09-24 23:55:00,44.9,38.1,30.07,NW,315,0.0,0.0,77,0.00,,---,0.00,VWS V14.01,2013-09-25 03:55:00,